Regional Weather Roundup
Issued by NWS

Home | Current Version | Previous Version | Graphics & Text | Print | Product List | Glossary On
Versions: 1 2 3 4 5 6 7 8 9 10 11 12 13 14 15 16 17 18 19 20 21 22 23 24 25 26 27 28 29 30 31 32 33 34 35 36 37 38 39 40 41 42 43 44 45 46 47 48 49 50
343
ASUS44 KLIX 162105
RWRLA
LOUISIANA WEATHER ROUNDUP
NATIONAL WEATHER SERVICE NEW ORLEANS LA
400 PM CDT TUE SEP 16 2014

NOTE: "FAIR" INDICATES FEW OR NO CLOUDS BELOW 12,000 FEET WITH NO
      SIGNIFICANT WEATHER AND/OR OBSTRUCTIONS TO VISIBILITY.
      SKY/WX - SKY CONDITION AND SIGNIFICANT WEATHER.
      TMP - AIR TEMPERATURE.    DP   - DEWPOINT TEMPERATURE.
      RH  - RELATIVE HUMIDITY.  PRES - PRESSURE.
      HX  - HEAT INDEX.         WCI  - WIND CHILL INDEX.

*  THESE STATIONS ARE NOT NWS OR FAA STATIONS AND ARE NOT UNDER
   NWS QUALITY CONTROL.

LAZ040-048-061>063-065-066-069-162200-
SOUTHEAST LOUISIANA

CITY           SKY/WX    TMP DP  RH WIND       PRES   REMARKS
N.O. AUDUBON     N/A     81  76  84 MISG        N/A
N.O. INTL ARPT LGT RAIN  79  74  84 SW9       29.99S
N.O. LAKEFRONT LGT RAIN  83  75  77 SW13      29.99F
N.O. DOWNTOWN* FAIR      84  72  65 S8        30.00R
SLIDELL        TSTM      74  71  91 E8G17     30.00R FOG
BATON ROUGE    LGT RAIN  79  73  82 CALM      29.99F
BOOTHVILLE     PTSUNNY   81  77  88 SW12      30.00F
BELLE CHASSE   CLOUDY    82  73  74 SW5       29.99F
BOGALUSA*      FAIR      82  74  77 SW8       29.99S
GALLIANO*      NOT AVBL
NEW ROADS*     TSTM      78  74  87 E5        29.99R
GONZALES*      TSTM      75  75 100 SE8       30.01R
HAMMOND*       CLOUDY    79  70  73 S3G9      30.01R
HOUMA*         PTSUNNY   84  72  65 S6        30.00S
PORT FOURCHON* NOT AVBL

$$

LAZ041-044-053-054-162200-
SOUTHWEST LOUISIANA

CITY           SKY/WX    TMP DP  RH WIND       PRES   REMARKS
LAKE CHARLES   PTSUNNY   82  73  74 SE15      29.99F
LAFAYETTE      PTSUNNY   83  75  77 SW16      29.97F
PATTERSON      PTSUNNY   81  77  89 SW8       30.02R
SALT POINT       N/A     84  78  82 SW9       29.99F HX  95
NEW IBERIA     PTSUNNY   83  77  82 SW10      29.98F
CHENAULT AIRPK PTSUNNY   81  73  78 SE14      30.00F

$$

LAZ027-028-162200-
CENTRAL LOUISIANA

CITY           SKY/WX    TMP DP  RH WIND       PRES   REMARKS
FORT POLK      PTSUNNY   87  71  58 CALM      29.97F
ALEXANDRIA INT PTSUNNY   89  73  59 N6        29.96F HX  97
ALEXANDRIA     MOSUNNY   91  72  53 VRB6      29.98F HX  98

$$

LAZ001-002-162200-
NORTHWEST LOUISIANA

CITY           SKY/WX    TMP DP  RH WIND       PRES   REMARKS
SHREVEPORT     PTSUNNY   91  67  44 VRB5      30.00F
BARKSDALE AFB  MOSUNNY   90  66  45 E3        30.01F
DTN SHREVEPORT PTSUNNY   89  68  49 VRB5      30.00F

$$

LAZ014-016-162200-
NORTHEAST LOUISIANA

CITY           SKY/WX    TMP DP  RH WIND       PRES   REMARKS
MONROE         PTSUNNY   86  70  58 N6        30.01F
TALLULAH       PTSUNNY   86  68  54 NE9       30.00F

$$




USA.gov is the U.S. government's official web portal to all federal, state and local government web resources and services.